Regional Weather Roundup
Issued by NWS

Home | Current Version | Previous Version | Text Only | Print | Product List | Glossary Off
Versions: 1 2 3 4 5 6 7 8 9 10 11 12 13 14 15 16 17 18 19 20 21 22 23 24 25 26 27 28 29 30 31 32 33 34 35 36 37 38 39 40 41 42 43 44 45 46 47 48 49 50

000
ASUS45 KSLC 241210
RWRUT

UTAH REGIONAL WEATHER ROUNDUP
NATIONAL WEATHER SERVICE SALT LAKE CITY UT
600 AM MDT FRI APR 24 2015

UTZ001>011-023>025-241300-

NORTHERN UTAH

CITY           SKY/WX    TMP DP  RH WIND       PRES   REMARKS
BRIGHAM CITY   CLOUDY    47  39  72 CALM      29.71S
HILL AFB       CLOUDY    48  39  71 E14       29.71S
LOGAN          MOCLDY    41  39  93 N5        29.71S
OGDEN          CLOUDY    49  38  65 S12       29.70S
PROVO AIRPORT  MOCLDY    43  30  61 SE7       29.76R
SALT LAKE CITY MOCLDY    52  36  54 SE8       29.71S
VERNAL         PTCLDY    39  30  70 W7        29.78S WCI  34
WENDOVER       MOCLDY    50  34  53 N3        29.70F
HEBER CITY     PTCLDY    32  28  86 CALM      29.78S
WEST JORDAN    PTCLDY    48  37  66 S9        29.73S

$$

UTZ012>022-026-027-241300-

SOUTHERN/CENTRAL UTAH

CITY           SKY/WX    TMP DP  RH WIND       PRES   REMARKS
BLANDING       PTCLDY    40  27  60 E3        29.89F
BRYCE CANYON   CLEAR     20  16  84 SW6       29.88S WCI  12
CEDAR CITY     MOCLDY    35  26  69 NE6       29.83R WCI  30
DELTA          CLEAR     47  28  46 S15       29.76S
HANKSVILLE     CLEAR     41  21  45 CALM      29.76S
MILFORD        CLEAR     43  28  55 SW13      29.79S
MOAB/CYNLANDS  CLEAR     44  26  49 CALM      29.73S
PRICE          CLEAR     37  20  50 N10       29.77S WCI  30
ST GEORGE      MOSUNNY   52  28  40 E9        29.82R
KANAB          CLEAR     32  27  80 NE5       29.90R WCI  27

$$

REGIONAL REPORTS     COLORADO/ARIZONA

CITY           SKY/WX    TMP DP  RH WIND       PRES   REMARKS
CRAIG, CO      CLOUDY    31  27  85 CALM      29.82S
GRAND JUNCTION MOCLDY    45  32  60 E6        29.77S
RIFLE          PTCLDY    37  31  78 SE5       29.82S WCI  33
MONTROSE       MOCLDY    42  29  59 E3        29.84R
CORTEZ         CLEAR     46  30  53 S13       29.85S
PAGE, AZ       MOCLDY    54  29  38 CALM      29.81S
GRAND CANYON   PTCLDY    24  15  68 CALM      29.92R
KINGMAN        CLEAR     45  38  76 S8        29.83S
FLAGSTAFF      PTCLDY    30  25  81 CALM      29.93R

$$

REGIONAL REPORTS    NEVADA/IDAHO/WYOMING

CITY           SKY/WX    TMP DP  RH WIND       PRES   REMARKS
LAS VEGAS, NV  PTCLDY    60  39  45 S12       29.72R
ELY            MOCLDY    38  28  67 SW8       29.80S WCI  32
ELKO           CLOUDY    38  34  85 E6        29.73F WCI  33
POCATELLO, ID  CLEAR     36  33  89 CALM      29.68F
BURLEY         MOCLDY    43  35  73 CALM      29.67R
EVANSTON, WY   MOCLDY    36  31  82 S6        29.79S WCI  31
ROCK SPRINGS   PTCLDY    36  31  82 CALM      29.79S

$$



USA.gov is the U.S. government's official web portal to all federal, state and local government web resources and services.